RH
56 67 98 95 92 98 99 100 83 100 78 64 70 73 79 75 74 82 100 100 100 100 100 100 100 99 94 95 99 100 99 100 100 99 96 79 95 96 93 88 80 74 68
54 56 75 96 83 100 100 100 65 89 59 56 62 68 70 67 68 86 97 100 100 100 100 100 100 99 99 96 98 99 100 100 100 100 100 94 90 86 87 81 75 79 84
51 52 66 72 62 95 100 100 73 80 53 42 42 36 41 57 63 78 98 93 97 99 99 100 100 96 100 97 96 98 99 100 100 100 100 98 94 83 88 90 87 94 94
50 62 97 87 70 80 91 98 80 82 49 38 34 29 28 32 51 56 70 65 66 71 85 97 100 94 97 97 98 99 99 100 100 100 100 100 99 99 100 94 85 90 94
93 92 88 84 78 79 84 86 84 84 72 56 41 30 26 26 35 39 42 36 34 37 46 65 81 99 96 95 98 99 96 96 100 100 99 100 98 94 94 92 95 87 77
89 86 78 73 73 71 69 70 73 74 75 69 45 33 22 20 30 32 44 33 27 24 25 27 34 59 93 96 95 97 98 96 91 92 96 99 100 100 100 100 98 90 91
75 75 68 68 68 64 63 65 64 66 66 70 50 49 20 15 16 19 26 33 33 32 27 25 21 24 33 75 96 96 99 100 100 97 90 96 98 99 100 99 100 100 100
72 69 66 65 65 63 61 61 61 62 64 62 60 26 24 12 12 12 13 18 23 25 27 23 19 19 20 23 35 70 82 96 100 100 99 95 95 96 97 99 100 98 100
70 69 69 66 64 63 63 61 60 61 62 68 61 40 18 13 13 13 13 14 15 15 16 15 15 15 16 14 13 18 28 38 64 82 87 78 78 90 96 94 91 87 90
75 72 65 62 66 63 62 64 65 62 59 71 79 54 29 15 14 15 15 15 15 15 14 13 12 21 16 12 13 15 15 28 26 22 26 40 51 59 80 99 98 98 94
18 29 28 36 38 49 55 57 69 76 59 42 50 60 33 19 16 17 17 17 16 18 18 17 17 24 20 17 14 15 22 20 21 26 27 27 39 44 68 86 100 100 100
11 10 11 12 14 16 19 22 29 40 36 43 49 43 47 22 18 18 19 18 18 20 23 26 26 23 21 19 19 18 15 15 17 16 16 25 41 65 64 66 79 100 94
10 10 11 11 13 14 16 18 18 18 20 20 28 41 21 16 15 16 18 19 20 21 26 41 32 32 30 25 24 22 19 20 23 24 27 28 45 68 84 64 60 57 68
11 11 11 12 13 14 16 16 14 12 11 11 11 14 15 12 11 12 15 20 22 24 30 41 36 35 32 30 27 26 24 21 24 31 43 35 32 41 65 76 89 70 68
12 13 14 15 15 16 17 16 14 13 11 10 10 10 10 10 10 11 14 18 26 31 44 46 40 38 37 36 36 37 35 29 26 31 30 24 20 28 57 66 84 88 82
16 15 26 45 35 29 27 20 32 27 18 18 18 17 15 13 11 11 13 20 50 60 66 69 70 71 77 79 71 72 68 58 48 45 48 45 41 52 68 65 71 77 83
53 38 19 14 18 21 20 22 28 30 33 44 50 46 38 24 13 16 21 68 100 95 85 98 94 94 96 90 85 89 85 88 73 57 60 54 43 46 79 98 89 92 84
15 15 12 11 12 13 15 19 26 49 73 91 92 85 78 59 32 55 60 94 77 100 100 100 100 100 100 99 92 93 88 85 71 52 46 47 45 65 86 99 90 99 100
11 11 12 12 13 16 21 25 63 93 94 93 95 98 95 85 58 87 95 96 87 99 98 98 100 100 100 100 90 98 100 97 97 60 47 45 44 57 80 100 89 99 99
12 13 13 18 24 48 53 85 94 94 96 93 94 97 97 90 60 100 96 100 96 96 99 100 100 100 99 99 80 84 91 92 99 61 49 47 44 52 78 100 94 100 98
16 20 37 51 31 48 95 97 91 97 93 95 97 96 95 89 81 98 96 100 95 97 100 100 100 100 100 100 84 79 87 90 98 65 56 52 50 49 71 94 90 100 96
20 75 97 84 76 88 96 95 100 82 92 93 98 100 97 92 98 98 93 98 94 97 99 100 100 100 100 100 97 98 100 100 89 81 71 62 58 55 73 100 90 94 92
21 44 85 93 96 95 96 91 88 98 100 100 94 88 92 95 97 94 95 94 98 98 100 100 100 100 100 100 100 100 100 100 93 91 84 77 70 64 76 100 100 94 77
24 29 54 88 92 95 96 96 95 90 92 89 94 96 91 92 94 94 95 98 96 97 100 99 100 100 99 100 100 100 100 98 100 94 86 87 86 83 98 100 100 86 73
24 28 55 85 94 94 97 97 95 94 93 93 92 92 92 92 93 92 95 95 95 94 96 99 95 95 99 100 100 100 96 100 100 89 83 88 93 94 100 100 100 96 88
29 33 41 88 95 94 94 95 93 94 96 92 93 94 94 95 92 92 93 92 90 89 86 86 94 98 100 100 100 100 100 100 93 84 90 92 94 97 100 100 100 100 100
Wind_Speed
2 2 4 7 7 7 9 11 11 12 14 16 17 19 21 23 23 22 23 25 27 26 27 26 28 31 30 27 22 16 19 21 31 27 36 46 26 34 23 23 26 32 36
5 5 5 6 6 7 8 12 12 12 14 17 18 20 21 23 23 22 22 24 26 28 28 27 29 31 30 31 25 23 20 19 21 24 19 26 35 29 28 25 27 27 31
5 6 8 9 9 7 7 12 14 14 17 18 20 23 24 24 23 21 22 24 24 25 27 27 28 31 31 32 30 28 23 18 17 16 16 18 21 27 27 23 22 26 29
7 11 11 12 11 10 10 12 17 14 18 20 20 24 26 23 22 22 24 24 25 27 27 26 29 30 27 29 30 34 30 22 18 15 12 8 10 16 18 22 24 22 26
10 10 9 8 13 13 12 11 15 18 20 21 19 23 26 24 22 21 25 26 29 29 32 30 29 27 24 23 28 33 34 31 28 24 23 21 20 21 20 22 26 27 25
4 5 6 7 6 9 10 10 12 14 17 20 20 22 26 26 20 18 22 25 28 30 33 34 34 31 29 25 24 27 32 36 34 33 32 33 31 29 25 21 22 25 25
4 4 5 5 7 8 9 10 10 11 12 15 19 18 23 26 23 20 22 24 26 28 31 34 34 35 34 30 25 25 28 31 32 30 32 35 35 32 27 22 19 16 14
6 5 6 6 8 9 9 10 10 10 11 13 16 19 20 24 24 23 22 23 24 26 28 32 33 34 35 34 30 27 28 29 31 30 29 28 29 32 28 25 24 14 2
7 5 6 7 7 8 9 10 9 10 10 12 14 17 20 22 23 24 23 22 23 25 27 29 31 33 34 34 33 32 31 30 28 26 25 25 26 33 32 30 33 30 16
11 8 5 8 8 8 8 8 8 8 9 9 10 15 17 20 21 22 23 24 23 24 25 26 27 30 31 33 35 35 34 33 32 31 30 29 29 30 33 34 32 34 34
11 11 11 10 8 7 6 6 6 6 7 9 9 11 15 18 20 22 23 24 25 24 25 27 28 28 28 29 31 34 33 29 31 32 32 34 34 34 32 31 28 28 28
12 10 9 7 7 6 5 6 6 6 7 9 11 11 14 17 19 20 21 22 23 23 23 24 24 24 26 26 27 28 29 30 32 34 35 36 35 34 35 30 27 22 24
12 9 7 6 4 4 4 5 6 7 8 9 10 11 13 16 18 20 21 21 23 23 22 21 23 24 25 27 29 31 33 34 33 34 35 35 32 28 29 31 30 27 24
10 8 6 4 2 2 3 4 5 7 8 9 11 12 15 17 20 22 23 23 22 20 20 20 20 20 22 23 25 27 29 31 31 31 33 33 32 31 30 31 31 34 33
10 7 5 3 2 2 2 4 6 7 10 12 13 14 16 18 20 21 22 21 20 20 19 19 20 22 23 24 25 26 27 29 30 29 30 31 31 31 32 33 31 33 34
11 8 7 6 5 6 7 8 8 11 12 13 13 14 15 17 19 19 18 17 18 19 19 21 22 22 24 25 26 26 27 28 29 28 29 30 31 30 30 32 32 33 34
10 11 8 9 9 9 9 10 11 14 14 15 17 18 17 15 20 20 17 15 14 18 19 19 20 21 22 22 24 24 26 26 27 27 27 29 30 29 29 30 31 32 34
13 12 11 11 11 12 12 12 12 12 12 14 18 20 23 22 23 20 20 16 15 14 17 17 19 20 21 21 22 23 24 25 26 27 27 28 29 28 28 30 31 31 33
14 13 12 12 12 13 12 13 11 11 12 13 13 16 18 19 23 16 18 19 20 15 17 16 17 18 20 20 21 20 21 22 24 26 26 27 29 27 26 28 30 29 31
15 15 14 12 12 13 12 10 11 11 12 12 13 15 20 24 17 8 14 16 20 17 16 17 17 16 19 19 21 20 20 21 23 26 27 27 28 26 25 28 29 30 32
15 14 13 13 13 11 10 13 12 12 13 13 13 17 19 20 14 8 14 15 19 17 15 16 17 16 18 19 22 20 20 21 22 27 29 28 28 27 24 26 27 28 30
15 12 15 15 12 9 14 12 15 15 13 14 14 17 17 16 13 15 16 17 18 17 18 16 17 16 17 20 23 21 20 20 23 29 29 28 28 27 24 26 27 28 30
18 16 16 15 15 14 16 17 13 12 15 15 18 17 15 16 17 18 16 17 17 19 18 16 15 17 16 20 22 24 22 21 26 30 30 28 27 25 23 26 28 29 30
18 17 17 16 15 16 17 17 18 18 18 18 15 16 17 15 16 16 17 16 19 19 19 17 20 19 18 21 24 25 21 24 28 31 28 27 27 23 20 24 26 27 27
20 20 19 17 16 16 17 15 14 16 16 17 16 16 15 15 16 16 16 17 19 19 19 21 23 20 21 24 26 25 26 27 32 29 29 29 28 23 19 23 23 26 23
16 17 19 16 16 16 16 17 17 16 16 16 15 14 14 16 16 16 17 18 20 21 22 22 23 24 25 27 27 29 28 32 35 31 34 35 31 26 20 20 25 25 21
Wind_Direction
30 73 30 5 0 3 352 335 351 349 346 355 356 357 357 358 0 3 8 3 4 357 354 354 349 351 352 344 333 323 296 290 280 290 265 267 279 273 270 274 268 263 260
5 10 7 356 0 12 355 332 3 0 0 7 6 4 2 4 7 9 11 8 5 5 360 360 356 360 360 355 352 345 337 306 301 305 296 275 260 284 281 274 270 264 265
359 5 17 12 7 9 9 347 11 12 12 15 17 16 10 9 10 17 18 13 11 10 8 6 2 8 5 4 3 2 355 341 331 318 321 294 281 272 284 277 274 269 267
20 36 40 359 19 22 26 0 14 16 20 22 23 21 15 13 17 17 23 19 18 20 15 18 17 16 11 10 11 12 11 8 1 355 349 338 309 265 281 292 280 278 284
28 20 37 11 16 24 32 27 9 12 15 16 19 26 20 17 18 21 28 24 25 26 23 23 25 30 25 27 28 19 21 25 26 26 20 14 0 343 344 318 314 307 295
43 54 18 36 37 33 37 37 26 21 10 11 24 27 25 24 22 25 35 27 27 27 26 26 27 28 31 27 37 41 34 31 33 32 30 25 18 7 354 345 330 324 321
88 66 55 54 55 52 45 49 38 34 26 17 22 31 26 28 27 28 36 28 25 23 24 26 29 30 29 27 32 41 45 44 38 35 34 27 18 12 7 0 352 336 321
104 92 80 69 67 63 58 56 48 39 32 27 24 28 28 31 28 30 37 35 28 25 23 25 27 29 30 29 30 35 39 43 41 36 37 31 26 19 21 21 17 6 46
121 100 90 83 77 73 66 52 48 43 41 28 19 20 25 24 25 26 28 29 32 27 25 22 24 27 27 28 29 32 36 41 40 39 42 44 33 31 28 25 27 27 23
143 118 100 106 96 80 77 72 37 39 34 33 19 13 14 18 18 19 21 22 22 24 25 22 24 24 24 24 25 27 29 30 32 33 35 36 38 36 35 34 28 24 21
151 151 143 128 109 110 97 82 81 27 22 23 24 11 11 13 13 13 15 17 16 16 16 18 19 20 20 23 26 27 28 27 31 31 31 31 33 32 31 32 33 27 25
143 139 133 127 119 108 88 73 61 52 28 23 17 14 3 9 11 11 13 14 13 12 13 15 14 20 21 20 22 25 23 24 27 28 28 26 25 25 22 24 27 35 23
153 148 144 135 116 93 79 62 50 35 25 18 11 0 2 359 5 6 7 9 8 8 9 9 10 13 15 18 20 19 19 22 23 24 23 22 21 21 18 17 20 21 24
161 162 160 152 125 70 42 32 29 18 9 4 3 357 358 355 356 359 1 0 1 1 3 3 4 9 13 16 17 19 21 21 20 18 15 13 14 19 20 15 12 12 14
176 181 192 208 264 288 314 323 338 350 349 349 351 351 349 350 351 350 347 347 350 355 358 355 1 6 9 12 14 16 16 16 17 16 13 10 11 11 14 11 13 8 12
194 195 211 227 275 293 303 311 317 328 333 336 339 339 338 338 340 339 337 340 351 0 356 358 0 4 5 5 6 7 11 10 11 10 10 8 8 10 9 5 7 8 7
198 216 229 241 258 272 287 296 301 315 324 330 332 336 337 337 338 339 340 356 357 346 357 356 356 357 357 358 360 2 3 3 2 7 6 5 4 6 10 4 4 4 0
221 229 243 258 270 278 285 294 303 312 314 325 324 330 332 336 342 346 356 347 347 352 346 351 348 349 349 350 354 357 357 357 357 0 1 2 2 3 7 1 1 2 357
230 240 249 262 271 278 287 294 302 307 311 312 317 316 306 320 326 342 347 328 338 342 335 340 339 340 340 342 346 350 350 352 348 353 357 358 358 358 1 357 356 358 353
237 248 262 264 270 285 297 298 294 294 290 294 295 289 290 309 328 318 321 317 319 328 328 331 332 333 331 333 338 343 345 347 344 348 352 352 354 355 356 352 352 352 348
243 254 256 266 265 268 276 273 281 280 288 294 294 292 304 318 332 327 314 304 313 322 323 323 324 330 327 328 336 341 343 341 337 344 345 346 349 348 350 348 346 346 345
242 241 265 281 288 276 268 276 260 280 283 288 285 293 304 314 321 302 305 304 315 316 320 318 321 327 326 325 334 338 336 334 336 341 340 340 342 343 342 342 340 340 341
246 242 244 248 259 265 267 282 291 284 279 277 285 293 290 291 295 304 303 308 310 313 317 320 323 328 326 325 331 332 330 329 338 338 335 335 336 337 336 336 333 334 337
250 250 252 257 257 260 263 266 269 275 280 287 287 287 290 290 294 297 303 305 308 314 321 327 326 324 323 323 323 324 322 324 328 330 330 329 333 332 333 325 325 327 334
251 248 249 252 255 258 271 277 273 279 281 282 284 287 291 292 294 299 302 305 310 317 318 315 320 323 320 316 320 316 317 319 319 323 328 332 327 324 322 314 318 323 333
255 250 249 251 252 256 262 266 273 273 273 280 283 287 289 293 297 302 302 303 306 309 314 316 317 316 312 312 314 308 306 308 314 321 326 326 320 318 314 317 314 321 331